Weather History for KBYG - November, 2011

Change the Weather History Date:

Sunday, November 6, 2011

  Actual Average Record
Temperature  
Mean Temperature 28 °F 39 °F  
Max Temperature 35 °F 50 °F 77 °F (2010)
Min Temperature 21 °F 27 °F 7 °F (2003)
Degree Days  
Heating Degree Days 37 26  
Month to date heating degree days 152  
Since 1 July heating degree days 1058  
Cooling Degree Days 0 0  
Month to date cooling degree days 0  
Year to date cooling degree days 492  
Moisture  
Dew Point 19 °F    
Average Humidity 73    
Maximum Humidity 92    
Minimum Humidity 50    
Precipitation  
Precipitation 0.00 in 0.02 in 0.32 in (1998)
Month to date precipitation 0.09  
Year to date precipitation 12.60  
Sea Level Pressure  
Sea Level Pressure 29.84 in    
Wind  
Wind Speed 8 mph (NW)    
Max Wind Speed 16 mph    
Max Gust Speed 26 mph    
Visibility 10 miles    
Events      
T = Trace of Precipitation, MM = Missing Value Source: NWS Daily Summary

Daily Weather History Graph

Daily Weather History Graph

Search for Another Location

Airport or City:

Trip Planner

Search our weather history database for the weather conditions in past years. The results will help you decide how hot, cold, wet, or windy it might be!

Date:

Astronomy

Nov. 06, 2011 Rise Set
Actual Time 6:50 AM MST 4:49 PM MST
Civil Twilight 6:19 AM MST 5:20 PM MST
Nautical Twilight 5:45 AM MST 5:55 PM MST
Astronomical Twilight 5:11 AM MST 6:28 PM MST
Moon 2:41 PM MST (11/6) 2:52 AM MST (11/6)
Length of Visible Light 11h 00m
Length of Day
9h 59m
Waxing Gibbous, 86% of the Moon is Illuminated
Nov 6
Waxing Gibbous
Nov 10
Full
Nov 18
Last Quarter
Nov 24
New
Dec 2
First Quarter

Hourly Weather History & Observations

Time (MST) Temp. Windchill Dew Point Humidity Pressure Visibility Wind Dir Wind Speed Gust Speed Precip Events Conditions
12:51 AM 26.6 °F 17.5 °F 21.2 °F 80% 29.63 in 10.0 mi NW 9.2 mph 20.7 mph N/A   Overcast
12:53 AM 26.1 °F 16.8 °F 21.9 °F 84% 29.71 in 10.0 mi NW 9.2 mph 18.4 mph N/A   Overcast
1:32 AM 24.8 °F 11.9 °F 19.4 °F 80% 29.63 in 10.0 mi NNW 16.1 mph 26.5 mph N/A   Overcast
1:53 AM 24.1 °F 12.5 °F 21.0 °F 88% 29.73 in 10.0 mi NNW 12.7 mph 25.3 mph N/A   Mostly Cloudy
1:53 AM 24.1 °F 16.0 °F 19.9 °F 84% 29.73 in 10.0 mi NNW 6.9 mph - N/A   Overcast
2:53 AM 23.0 °F 13.9 °F 21.0 °F 92% 29.75 in 10.0 mi South 8.1 mph - N/A   Mostly Cloudy
3:23 AM 24.8 °F 14.6 °F 21.2 °F 86% 29.67 in 10.0 mi South 10.4 mph - N/A   Scattered Clouds
3:53 AM 24.1 °F 15.2 °F 21.0 °F 88% 29.76 in 10.0 mi South 8.1 mph - N/A   Partly Cloudy
4:53 AM 24.1 °F 15.2 °F 19.0 °F 81% 29.78 in 10.0 mi SSW 8.1 mph - N/A   Clear
5:53 AM 21.9 °F 13.4 °F 18.0 °F 85% 29.80 in 10.0 mi SW 6.9 mph - N/A   Mostly Cloudy
6:53 AM 21.0 °F 13.4 °F 16.0 °F 81% 29.83 in 10.0 mi WSW 5.8 mph - N/A   Mostly Cloudy
7:53 AM 26.1 °F - 19.0 °F 75% 29.83 in 10.0 mi Calm Calm - N/A   Partly Cloudy
8:53 AM 28.9 °F 21.9 °F 19.0 °F 67% 29.81 in 10.0 mi North 6.9 mph - N/A   Clear
9:53 AM 30.9 °F 22.8 °F 17.1 °F 57% 29.83 in 10.0 mi North 9.2 mph - N/A   Clear
10:53 AM 30.9 °F 24.3 °F 17.1 °F 57% 29.84 in 10.0 mi North 6.9 mph - N/A   Partly Cloudy
11:45 AM 30.2 °F 26.7 °F 19.4 °F 64% 29.77 in 10.0 mi NNE 3.5 mph - N/A   Overcast
11:53 AM 32.0 °F 24.8 °F 19.0 °F 59% 29.85 in 10.0 mi NNW 8.1 mph - N/A   Overcast
12:53 PM 33.1 °F 30.0 °F 19.0 °F 56% 29.85 in 10.0 mi Variable 3.5 mph - N/A   Partly Cloudy
1:53 PM 34.0 °F - 18.0 °F 52% 29.86 in 10.0 mi Calm Calm - N/A   Clear
2:53 PM 35.1 °F 29.3 °F 18.0 °F 50% 29.88 in 10.0 mi NNE 6.9 mph - N/A   Partly Cloudy
3:53 PM 32.0 °F 24.8 °F 18.0 °F 56% 29.92 in 10.0 mi NNW 8.1 mph - N/A   Clear
4:53 PM 27.0 °F 19.5 °F 18.0 °F 69% 29.95 in 10.0 mi NNW 6.9 mph - N/A   Clear
5:53 PM 27.0 °F 18.0 °F 17.1 °F 66% 29.99 in 10.0 mi NW 9.2 mph - N/A   Clear
6:53 PM 24.1 °F 14.4 °F 16.0 °F 71% 30.03 in 10.0 mi NW 9.2 mph - N/A   Clear
7:53 PM 23.0 °F 13.9 °F 17.1 °F 78% 30.04 in 10.0 mi WNW 8.1 mph - N/A   Clear
8:53 PM 23.0 °F 17.0 °F 16.0 °F 74% 30.06 in 10.0 mi WNW 4.6 mph - N/A   Clear
9:53 PM 21.0 °F 16.2 °F 15.1 °F 78% 30.08 in 10.0 mi West 3.5 mph - N/A   Clear